Atlanta Dekalb, GA

6:22 AM EDT on March 26, 2017 (GMT -0400)
Dekalb-Peachtree

Weather History for KPDK - August, 2012

Change the Weather History Date:

Friday, August 3, 2012

  Actual Average Record
Temperature  
Mean Temperature 80 °F 80 °F  
Max Temperature 90 °F 89 °F 100 °F (2011)
Min Temperature 70 °F 71 °F 62 °F (1998)
Cooling Degree Days 15 15  
Month to date cooling degree days 45  
Year to date cooling degree days 1068  
Since 1 June cooling degree days 857  
Growing Degree Days 30 (Base 50)    
Moisture  
Dew Point 69 °F    
Average Humidity 75    
Maximum Humidity 93    
Minimum Humidity 48    
Precipitation  
Precipitation 0.00 in 0.17 in 1.11 in (2003)
Month to date precipitation 0.50  
Year to date precipitation 32.77  
Sea Level Pressure  
Sea Level Pressure 29.96 in    
Wind  
Wind Speed 4 mph (SSW)    
Max Wind Speed 10 mph    
Max Gust Speed -    
Visibility 9 miles    
Events Rain , Thunderstorm    
T = Trace of Precipitation, MM = Missing Value Source: NWS Daily Summary

Daily Weather History Graph

Daily Weather History Graph

Search for Another Location

Airport or City:

Trip Planner

Search our weather history database for the weather conditions in past years. The results will help you decide how hot, cold, wet, or windy it might be!

Date:

Astronomy

Aug. 03, 2012 Rise Set
Actual Time 6:50 AM EDT 8:35 PM EDT
Civil Twilight 6:23 AM EDT 9:02 PM EDT
Nautical Twilight 5:50 AM EDT 9:35 PM EDT
Astronomical Twilight 5:15 AM EDT 10:09 PM EDT
Moon 9:23 PM EDT (8/3) 8:25 AM EDT (8/3)
Length of Visible Light 14h 39m
Length of Day
13h 44m
Full, 97% of the Moon is Illuminated
Aug 3
Full
Aug 9
Last Quarter
Aug 17
New
Aug 24
First Quarter
Aug 31
Full

Hourly Weather History & Observations

Time (EDT) Temp. Heat Index Dew Point Humidity Pressure Visibility Wind Dir Wind Speed Gust Speed Precip Events Conditions
12:53 AM 73.9 °F - 68.0 °F 82% 29.88 in 10.0 mi WSW 4.6 mph - N/A   Clear
1:53 AM 73.4 °F - 68.0 °F 83% 29.95 in 10.0 mi Calm Calm - N/A   Clear
2:53 AM 73.0 °F - 68.0 °F 84% 29.88 in 10.0 mi NW 3.5 mph - N/A   Clear
3:53 AM 71.1 °F - 68.0 °F 90% 29.89 in 9.0 mi Calm Calm - N/A   Clear
4:53 AM 71.1 °F - 68.0 °F 90% 29.90 in 8.0 mi South 3.5 mph - N/A   Clear
5:53 AM 71.1 °F - 69.1 °F 93% 29.93 in 7.0 mi SE 4.6 mph - N/A   Clear
6:53 AM 70.0 °F - 68.0 °F 93% 29.95 in 7.0 mi South 4.6 mph - N/A   Clear
7:53 AM 71.1 °F - 69.1 °F 93% 29.97 in 6.0 mi SSW 4.6 mph - N/A   Clear
8:53 AM 73.4 °F - 69.8 °F 88% 30.02 in 8.0 mi South 3.5 mph - N/A   Clear
9:11 AM 75.2 °F - 69.8 °F 83% 30.03 in 6.0 mi SSW 4.6 mph - N/A   Haze
9:13 AM 75.2 °F - 69.8 °F 83% 30.03 in 8.0 mi South 4.6 mph - N/A   Clear
9:53 AM 77.0 °F - 70.0 °F 79% 29.98 in 9.0 mi Calm Calm - N/A   Clear
10:53 AM 81.0 °F 84.9 °F 71.1 °F 72% 29.99 in 9.0 mi Calm Calm - N/A   Clear
11:53 AM 82.9 °F 87.0 °F 70.0 °F 65% 29.99 in 10.0 mi South 5.8 mph - N/A   Clear
12:53 PM 88.0 °F 92.1 °F 69.1 °F 53% 29.97 in 10.0 mi SW 6.9 mph - N/A   Clear
1:53 PM 89.1 °F 93.7 °F 69.1 °F 52% 29.97 in 10.0 mi WSW 9.2 mph - N/A   Mostly Cloudy
2:53 PM 90.0 °F 93.6 °F 68.0 °F 48% 29.95 in 10.0 mi Variable 3.5 mph - N/A   Clear
3:53 PM 88.0 °F 91.4 °F 68.0 °F 51% 29.92 in 9.0 mi Variable 4.6 mph - N/A   Mostly Cloudy
4:53 PM 90.0 °F 94.5 °F 69.1 °F 50% 29.91 in 9.0 mi Calm Calm - N/A   Partly Cloudy
5:53 PM 88.0 °F 91.4 °F 68.0 °F 51% 29.91 in 10.0 mi West 10.4 mph - N/A   Overcast
6:08 PM 87.8 °F 90.4 °F 66.2 °F 49% 29.97 in 10.0 mi West 9.2 mph - N/A Thunderstorm Scattered Clouds
6:53 PM 80.1 °F 82.9 °F 69.1 °F 69% 29.94 in 9.0 mi Calm Calm - N/A Thunderstorm Mostly Cloudy
7:53 PM 75.9 °F - 69.1 °F 79% 29.96 in 10.0 mi East 4.6 mph - 0.00 in Rain Light Rain
8:53 PM 75.0 °F - 71.1 °F 87% 29.97 in 9.0 mi South 5.8 mph - 0.00 in Rain Light Rain
9:53 PM 75.0 °F - 70.0 °F 84% 29.99 in 10.0 mi Calm Calm - 0.00 in   Scattered Clouds
10:53 PM 75.0 °F - 69.1 °F 82% 30.00 in 10.0 mi SSW 6.9 mph - N/A   Mostly Cloudy
11:53 PM 75.0 °F - 70.0 °F 84% 29.98 in 10.0 mi Calm Calm - N/A   Mostly Cloudy